Earn Your Wings!


Squadron Photo Video

Since its foundation in 1951, Kitty Hawk Squadron 3 has trained hundreds of young men
and women to fly.  If you are between the ages of 14 and 21, you are eligible to participate
in this exciting program.  Ground and Flight Instruction are provided at no charge by our volunteer
Certified Flight Instructors.  Flight Training is performed in a Cessna 172 provided by the
North Hollywood Optimist Club, the primary sponsor of Squadron 3 since 1951.

Meetings are held Mondays at 7:00 PM
Signature Flight Support - 7240 Hayvenhurst Pl, Van Nuys, CA 91406



Whiteman Airport METAR: KWHP 130055Z 11008KT 10SM SKC 33/08 A2985 KWHP 2020-07-13T00:55:00Z 34.25 -1


Van Nuys Airport METAR: KVNY 130051Z 10008KT 10SM CLR 34/11 A2980

this page last updated August 20, 2019